レナード彗星

C/2022 U1 ( Leonard )

English version
Home page
Updated on November 27, 2024

---------------------------------------------------------------------

・ プロフィール

発見日 2022年10月20日
発見光度 19.8等
発見者 G. J. Leonard (Mt. Lemmon)

・ 写真集

・ 軌道要素

Epoch 2024 Oct. 17.0 TT = JDT 2460600.5
T 2024 Mar. 25.97455 TT                                 Rudenko
q   4.2021461            (2000.0)            P               Q
z  +0.0000789      Peri.   78.59977     +0.63693684     -0.17788835
 +/-0.0000008      Node    72.52580     -0.30048121     -0.95334492
e   0.9996683      Incl.  128.14945     +0.70994542     -0.24390409
>From 918 observations 2022 Sept. 23-2024 Aug. 31, mean residual 0".6.

・ 光度変化

        m1 = 7.5 + 5 logΔ + 10.0 log r(t - 100)

---------------------------------------------------------------------

軌道要素はM.P.E.C. 2024-R10に掲載されたものです。
光度グラフはComet for Windowsで作成したものです。

---------------------------------------------------------------------

Copyright(C) Seiichi Yoshida (comet@aerith.net). All rights reserved.